Location: Newark
(39.9581°N, 97.2014°W)
Time: 07:22:46
(UTC+00:00)

Envisat - Pass Details

Date: 27 January 2020
Orbit: 764 x 766 km, 98.1° (Epoch: 20 February)

Event Time Altitude Azimuth Distance (km) Brightness Sun altitude
Rises 01:09:46 0° 194° (SSW) 3,218 6.6 -17.2°
Reaches altitude 10° 01:12:21 10° 206° (SSW) 2,296 5.9 -17.6°
Maximum altitude 01:16:41 28° 265° (W) 1,403 5.1 -18.5°
Drops below altitude 10° 01:21:02 10° 324° (NW) 2,310 5.8 -19.3°
Sets 01:23:40 0° 336° (NNW) 3,240 6.5 -19.8°
